Location: Rooftop Observatory
(39.0308°N, 87.1711°W)
Time: 21:01:03
(UTC-06:00)

Daily predictions for brighter satellites

Satellite Brightness Start Highest point End
(mag) Time Altitude Azimuth Time Altitude Azimuth Time Altitude Azimuth
Cosmos 2333 Rocket 2.8 17:19:05 10° SW 17:24:40 61° WNW 17:30:17 10° NNE
Cosmos 1633 Rocket 4.5 17:24:53 10° SE 17:27:53 18° E 17:30:52 10° NE
Cosmos 1726 2.1 17:25:05 10° N 17:28:53 82° E 17:32:39 10° S
COSMOS 2441 4.4 17:24:14 10° SSE 17:29:02 65° ENE 17:33:50 10° N
Cosmos 1328 4.1 17:26:34 10° SSW 17:30:29 71° W 17:34:25 10° N
CENTAUR R/B 4.2 17:25:25 10° W 17:30:41 27° NW 17:36:29 10° NNE
MSX 3.8 17:26:33 10° SSE 17:32:16 83° ENE 17:38:01 10° NNW
MOS 1 4.5 17:27:20 10° SSE 17:32:59 81° WSW 17:38:42 10° NNW
Cosmos 2278 Rocket 2.4 17:28:00 10° NNW 17:33:43 83° WSW 17:39:23 10° SSE
Transit 2A Rocket 4.4 17:29:33 10° NNW 17:33:54 81° ENE 17:38:13 10° SSE
Cosmos 1455 3.5 17:33:34 10° NNE 17:36:22 19° ENE 17:39:11 10° ESE
Timation 1 Rocket 4.4 17:34:03 10° NNW 17:40:01 60° ENE 17:45:56 10° SE
Abrixas 4.0 17:37:42 10° W 17:40:14 26° NNW 17:42:48 10° NE
SMAP 3.8 17:35:43 10° S 17:40:18 60° W 17:44:55 10° NNW
USA 229 DEB 4.3 17:34:20 10° S 17:40:25 36° ESE 17:46:35 10° NE
USA 229 4.4 17:34:27 10° S 17:40:31 35° ESE 17:46:39 10° NE
Cosmos 1634 Rocket 4.4 17:37:01 10° NNW 17:43:10 70° W 17:49:16 10° S
Cosmos 1703 3.5 17:40:32 10° SSE 17:44:16 46° E 17:48:01 10° NNE
Cosmos 1125 Rocket 4.3 17:39:38 10° NNW 17:44:43 56° WSW 17:49:47 10° S
Cosmos 1184 Rocket 4.0 17:43:02 10° SSE 17:45:45 23° E 17:48:28 10° NE
CZ-4 R/B 3.3 17:43:36 10° SSW 17:47:09 34° W 17:50:44 10° NNW
SJ-6B 4.0 17:45:38 10° ESE 17:48:53 23° ENE 17:52:11 10° NNE
Iridium 4 Rocket 4.3 17:49:33 10° SE 17:52:49 20° E 17:55:58 10° NE
Cosmos 2151 3.9 17:49:33 10° SSW 17:53:39 51° W 17:57:45 10° N
YAOGAN 1 3.8 17:49:42 10° S 17:53:51 46° W 17:58:03 10° NNW
Cosmos 1707 Rocket 3.8 17:50:17 10° N 17:54:28 46° E 17:58:38 10° SSE
OTV 4 3.8 17:55:30 10° SW 17:55:52 10° SSW 17:56:12 10° SSW
Cosmos 2237 Rocket 3.3 17:50:50 10° SW 17:56:09 44° WNW 18:01:33 10° N
Cosmos 1300 4.0 17:52:46 10° NNW 17:56:26 43° W 18:00:04 10° SSW
COSMO-SKYMED 1 2.5 17:52:19 10° NNE 17:56:42 83° ESE 18:01:02 10° S
Cosmos 2369 Rocket 3.8 17:58:06 10° NNE 18:00:46 13° NE 18:01:00 13° NE
H-2A ROCKET BODY 4.4 17:27:16 10° WSW 18:02:51 49° S 18:09:17 11° ESE
Cosmos 1666 Rocket 3.6 17:59:31 10° S 18:03:45 56° E 18:08:04 10° NNE
SL-16 R/B 2.2 17:58:50 10° SSW 18:04:29 87° WNW 18:10:11 10° NNE
Cosmos 1538 Rocket 4.0 18:00:14 10° SSW 18:05:30 77° ESE 18:10:52 10° NNE
Haruka 4.3 18:03:06 10° WSW 18:06:58 43° SSE 18:16:07 13° E
FREGAT/IRIS 3.5 18:04:41 10° SE 18:07:22 28° ENE 18:10:04 10° NNE
Meteor 2-10 4.5 18:02:21 10° NNW 18:07:27 66° W 18:12:41 10° S
Cosmos 1484 Rocket 3.8 18:08:19 10° S 18:12:08 50° W 18:16:02 10° NNW
Cosmos 923 Rocket 4.4 18:08:36 10° S 18:13:23 39° ESE 18:16:59 16° NE
Resurs 01 Rocket 2.6 18:12:15 19° ESE 18:14:04 25° ENE 18:17:41 10° NNE
Cosmos 1340 Rocket 3.9 18:11:03 10° SSW 18:14:49 44° WNW 18:18:36 10° N
Cosmos 1933 Rocket 4.5 18:11:41 10° SSE 18:15:25 27° E 18:16:30 24° ENE
Cosmos 2297 3.9 18:13:05 10° NNW 18:18:48 76° WSW 18:24:30 10° SSE
Cosmos 1680 Rocket 4.1 18:15:13 10° SSE 18:19:51 34° E 18:22:05 24° ENE
Meteor 1-28 Rocket 3.4 18:17:04 10° N 18:20:46 69° WNW 18:24:28 10° SSW
Lacrosse 4 Rocket 1.6 18:20:04 10° NNW 18:23:56 41° ENE 18:25:17 31° ESE
Tiangong 1 2.1 18:26:03 10° SW 18:28:39 30° SSE 18:28:39 30° SSE
FENGYUN 3A 3.9 18:25:23 10° SE 18:30:23 42° ENE 18:35:27 10° N
METEOR-M 4.0 18:25:16 10° SSE 18:30:36 82° ENE 18:36:00 10° N
Cosmos 1869 3.3 18:26:52 10° N 18:30:51 55° E 18:34:48 10° SSE
NOSS 3-1 (C) 4.1 18:27:23 10° SSE 18:32:12 28° ESE 18:32:51 28° E
Cosmos 1470 Rocket 3.6 18:32:37 10° S 18:36:50 51° E 18:38:13 36° NE
NOAA 12 4.2 18:33:56 10° S 18:39:10 77° WSW 18:44:28 10° NNW
Cosmos 773 Rocket 4.1 18:34:58 10° SSW 18:40:06 78° WNW 18:45:04 11° NNE
Cosmos 1943 4.0 18:37:40 10° SSE 18:41:55 30° ESE 18:41:55 30° ESE
USA 215 3.3 18:40:52 27° ESE 18:44:28 60° NE 18:50:54 10° NW
Cosmos 2242 Rocket 3.5 18:41:34 10° N 18:46:01 90° ESE 18:50:28 10° S
Lacrosse 5 4.1 18:45:41 10° N 18:47:19 11° NNE 18:47:19 11° NNE
Nadezhda 4 Rocket 4.3 18:41:13 10° SSW 18:47:25 67° W 18:53:44 10° N
ATLAS 5 CENTAUR R/B 4.1 18:44:56 10° N 18:47:22 16° NNE 18:47:22 16° NNE
Cosmos 1626 4.0 18:45:21 10° SW 18:48:41 31° WNW 18:52:03 10° NNW
Cosmos 2026 Rocket 4.0 18:45:11 10° SSE 18:51:11 53° E 18:55:59 16° NNE
Sich 1 4.4 18:50:45 10° SSW 18:54:54 39° WNW 18:59:05 10° N
Cosmos 2112 Rocket 3.9 18:51:08 10° S 18:56:15 64° ESE 18:57:12 53° ENE
BREEZE-M DEB (TANK) 4.3 18:56:36 10° NW 18:56:48 11° NW 18:56:48 11° NW
Lacrosse 5 rocket 4.5 18:57:09 10° W 18:58:39 12° WSW 19:00:12 10° SW
Aureole 1 Rocket 4.4 18:54:06 10° SSW 18:59:27 62° WNW 19:06:34 10° NNE
ALOS 2.1 18:56:48 10° SSE 19:01:28 87° ENE 19:06:09 10° NNW
Coronas F rocket 4.4 19:02:57 10° WSW 19:03:53 15° W 19:03:53 15° W
Cosmos 1943 Rocket 4.3 19:02:14 10° N 19:02:43 12° N 19:02:43 12° N
Meteor 2-20 4.3 19:00:56 10° S 19:06:58 65° E 19:09:17 38° NNE
Cosmos 1603 3.9 19:03:44 10° SSW 19:09:19 70° WNW 19:12:04 31° N
Cosmos 1092 Rocket 4.4 19:03:37 10° SSW 19:09:52 62° W 19:16:10 10° N
FengYun 1-2 T 4.3 19:05:36 10° S 19:11:10 79° WSW 19:16:42 10° NNW
Cosmos 292 Rocket 4.1 19:08:03 10° SSW 19:12:45 61° WNW 19:14:08 42° N
Spot 2 Rocket 4.0 19:23:16 10° S 19:28:13 58° W 19:33:12 10° NNW
NOSS 3-1 (A) 4.2 19:38:58 10° SSW 19:42:21 38° SSW 19:42:21 38° SSW
Cosmos 2369 Rocket 3.5 19:39:58 10° NNW 19:42:51 31° NNW 19:42:51 31° NNW
Resurs 01 Rocket 3.5 19:49:47 28° WSW 19:50:25 29° W 19:54:17 10° NW
Lacrosse 4 Rocket 4.3 19:59:59 10° WNW 20:01:45 14° W 20:01:45 14° W
CZ-4C R/B 4.4 20:06:19 10° NNW 20:08:40 21° N 20:08:40 21° N
USA 215 4.4 20:28:14 37° WSW 20:28:14 37° WSW 20:33:37 10° WNW
